Hourly Weather Roundup
Issued by NWS Central Illinois

Home | Current Version | Previous Version | Text Only | Print | Product List | Glossary On
Versions: 1 2 3 4 5 6 7 8 9 10 11 12 13 14 15 16 17 18 19 20 21 22 23 24 25 26 27 28 29 30 31 32 33 34 35 36 37 38 39 40 41 42 43 44 45 46 47 48 49 50
000
NZUS43 KILX 231910
HWRILX

Area Weather Roundup
National Weather Service Lincoln IL
200 PM CDT MON APR 23 2018

NOTE:  "FAIR" indicates few or no clouds below 12,000 feet, with
       no sigificant weather and/or obstructions to visibility.


CITY           SKY/WX    TMP DP  RH WIND       PRES   REMARKS
Bloomington    CLOUDY    67  45  45 E17       30.06F
Champaign      CLOUDY    61  51  70 E17       30.05S
Danville       CLOUDY    60  53  78 SE14      30.05S HAZE
Decatur        CLOUDY    59  52  77 E18       30.03S
Effingham      CLOUDY    57  55  94 NE8       30.02S
Flora          CLOUDY    61  55  81 E10       29.99R
Galesburg      CLOUDY    71  33  25 NE16      30.08F
Jacksonville   PTSUNNY   67  43  41 NE13G18   30.02F
Lacon          PTSUNNY   66  37  33 N9G17     30.05F
Lawrenceville  LGT RAIN  60  55  83 MISG      30.00S
Litchfield     CLOUDY    55  53  91 NE12      30.00F
$$


CITY           SKY/WX    TMP DP  RH WIND       PRES   REMARKS
Lincoln        CLOUDY    66  45  47 E12G18    30.04F
Macomb         PTSUNNY   67  34  29 NE16G22   30.08F
Mattoon        LGT RAIN  55  54  96 E12       30.02S FOG
Mt Carmel AP   CLOUDY    60  55  83 E17       29.98S
Olney-Noble AP CLOUDY    59  57  93 E12G18    29.99S
Paris AP       LGT RAIN  56  56  97 E10       30.06S
Peoria         CLOUDY    65  36  34 NE12G20   30.05F
Pontiac        CLOUDY    71  36  28 E13G21    30.07F
Rantoul        PTSUNNY   69  49  48 E14G20    30.05F
Robinson       LGT RAIN  56  55  94 E13       30.02S
Springfield    PTSUNNY   70  47  43 NE16G23   30.02F
Taylorville    CLOUDY    57  55  94 E12       30.02S FOG
$$

...REGIONAL REPORTS...


CITY           SKY/WX    TMP DP  RH WIND       PRES   REMARKS
Chicago O`Hare PTSUNNY   59  28  30 NE17      30.12F
Kankakee       CLOUDY    69  40  34 SE9       30.08F
La Salle       FAIR      70  33  25 E17       30.08F
Moline         FAIR      70  32  24 N10G21    30.07F
Mount Sterling CLOUDY    66  37  34 NE14      30.03F
Mount Vernon   CLOUDY    61  56  83 NE12      29.96S
Pittsfield     MOSUNNY   67  42  40 NE10G22   30.02F
Quincy         CLOUDY    69  35  28 NE16      30.03F
Rockford       PTSUNNY   69  30  23 NE13G24   30.13F
$$


CITY           SKY/WX    TMP DP  RH WIND       PRES   REMARKS
Burlington     MOSUNNY   72  33  24 NE21      30.05F
Cedar Rapids   FAIR      70  25  18 E17       30.11F
Des Moines     PTSUNNY   70  32  24 NE9G17    30.13F
Kirksville     CLOUDY    71  38  29 NE16G26   30.06F
Ottumwa        PTSUNNY   70  27  20 NE14      30.09F
St Louis       CLOUDY    57  53  86 NE10      29.99F
$$


CITY           SKY/WX    TMP DP  RH WIND       PRES   REMARKS
Terre Haute    LGT RAIN  56  54  93 E13       30.04F
Evansville     CLOUDY    62  56  80 E9        29.96S
Indianapolis   RAIN      54  53  97 E12       30.09S FOG
Lafayette      CLOUDY    59  52  77 SE9       30.09S
Madison        PTSUNNY   65  29  25 NE8G20    30.16F
Milwaukee      PTSUNNY   57  29  34 N15       30.18F
$$





USA.gov is the U.S. government's official web portal to all federal, state and local government web resources and services.